PAL556 RPMD-RPVP

Flight info

Callsign PAL556
Flight time 1h 18m
Altitude 38000
Route ANKIN3P ANKIN B473 LUMVI W7 IOO W17 ZENNY ZENNY2W
Aircraft B744/H-SDE3FGHIM1M2RWXY/LB1

Departure

Time 2026-05-07 13:40
Airport Francisco Bangoy International Airport (RPMD)

Arrival

Time 2026-05-07 14:59
Airport Puerto Princesa International Airport / PAF Antonio Bautista Air Base (RPVP)
Time Latitude Longitude Altitude Speed Heading
2026-05-07 13:01 7.12946 125.64552 107 ft 0 kts 319°
2026-05-07 13:05 7.12937 125.64559 107 ft 2 kts 318°
2026-05-07 13:05 7.12929 125.64567 107 ft 0 kts 317°
2026-05-07 13:23 7.12923 125.64572 107 ft 2 kts 318°
2026-05-07 13:24 7.12908 125.64585 107 ft 2 kts 318°
2026-05-07 13:24 7.12896 125.64595 107 ft 2 kts 317°
2026-05-07 13:24 7.12889 125.64602 107 ft 2 kts 333°
2026-05-07 13:24 7.12875 125.64603 107 ft 2 kts 22°
2026-05-07 13:25 7.12867 125.64598 107 ft 0 kts 49°
2026-05-07 13:25 7.12863 125.64593 107 ft 0 kts 50°
2026-05-07 13:28 7.12863 125.64594 107 ft 1 kts 50°
2026-05-07 13:28 7.12886 125.64622 107 ft 9 kts 50°
2026-05-07 13:28 7.12944 125.64689 107 ft 12 kts 48°
2026-05-07 13:28 7.12998 125.64751 107 ft 5 kts 48°
2026-05-07 13:29 7.13011 125.64768 107 ft 3 kts 61°
2026-05-07 13:29 7.13015 125.64787 107 ft 2 kts 102°
2026-05-07 13:29 7.13005 125.64804 107 ft 2 kts 130°
2026-05-07 13:29 7.12995 125.64817 107 ft 1 kts 129°
2026-05-07 13:30 7.12992 125.64821 107 ft 1 kts 131°
2026-05-07 13:30 7.12973 125.64839 107 ft 6 kts 138°
2026-05-07 13:30 7.12955 125.64855 107 ft 0 kts 139°
2026-05-07 13:34 7.12950 125.64859 107 ft 2 kts 139°
2026-05-07 13:34 7.12921 125.64885 107 ft 6 kts 139°
2026-05-07 13:35 7.12882 125.64927 107 ft 4 kts 106°
2026-05-07 13:35 7.12882 125.64946 107 ft 3 kts 79°
2026-05-07 13:35 7.12890 125.64969 107 ft 4 kts 61°
2026-05-07 13:35 7.12912 125.64996 107 ft 6 kts 49°
2026-05-07 13:36 7.12953 125.65045 107 ft 13 kts 49°
2026-05-07 13:36 7.13032 125.65138 107 ft 22 kts 49°
2026-05-07 13:36 7.13160 125.65281 107 ft 32 kts 49°
2026-05-07 13:36 7.13300 125.65449 107 ft 27 kts 52°
2026-05-07 13:37 7.13353 125.65503 107 ft 5 kts 25°
2026-05-07 13:37 7.13392 125.65508 107 ft 5 kts 359°
2026-05-07 13:37 7.13418 125.65512 107 ft 2 kts 19°
2026-05-07 13:37 7.13446 125.65527 107 ft 7 kts 30°
2026-05-07 13:38 7.13462 125.65565 107 ft 5 kts 122°
2026-05-07 13:38 7.13433 125.65583 107 ft 3 kts 172°
2026-05-07 13:38 7.13415 125.65581 107 ft 0 kts 216°
2026-05-07 13:38 7.13413 125.65579 107 ft 0 kts 229°
2026-05-07 13:39 7.13411 125.65577 107 ft 5 kts 229°
2026-05-07 13:39 7.13321 125.65473 107 ft 49 kts 228°
2026-05-07 13:39 7.13230 125.65368 107 ft 0 kts 229°
2026-05-07 13:39 7.13205 125.65340 107 ft 0 kts 223°
2026-05-07 13:40 7.13175 125.65304 107 ft 37 kts 230°
2026-05-07 13:40 7.12785 125.64851 108 ft 133 kts 228°
2026-05-07 13:40 7.12209 125.64173 244 ft 180 kts 230°
2026-05-07 13:40 7.11724 125.63580 798 ft 178 kts 230°
2026-05-07 13:41 7.10979 125.62522 1182 ft 202 kts 240°
2026-05-07 13:41 7.10668 125.61150 1704 ft 205 kts 269°
2026-05-07 13:41 7.11057 125.59802 2113 ft 208 kts 298°
2026-05-07 13:41 7.12063 125.58791 2522 ft 210 kts 326°
2026-05-07 13:42 7.13335 125.58013 2893 ft 222 kts 326°
2026-05-07 13:42 7.14598 125.57110 3391 ft 233 kts 322°
2026-05-07 13:42 7.15891 125.56112 4062 ft 243 kts 320°
2026-05-07 13:42 7.17611 125.54688 5346 ft 245 kts 318°
2026-05-07 13:43 7.18476 125.53942 5948 ft 246 kts 317°
2026-05-07 13:43 7.19735 125.52831 6801 ft 247 kts 316°
2026-05-07 13:43 7.21045 125.51649 7664 ft 258 kts 316°
2026-05-07 13:43 7.22820 125.50019 8691 ft 267 kts 316°
2026-05-07 13:44 7.23714 125.49193 9159 ft 272 kts 316°
2026-05-07 13:44 7.25140 125.47876 9880 ft 287 kts 316°
2026-05-07 13:44 7.26607 125.46508 10737 ft 294 kts 316°
2026-05-07 13:44 7.28099 125.45107 11592 ft 303 kts 316°
2026-05-07 13:45 7.29635 125.43661 12500 ft 305 kts 316°
2026-05-07 13:45 7.31122 125.42260 13298 ft 311 kts 315°
2026-05-07 13:45 7.32733 125.40739 14088 ft 316 kts 315°
2026-05-07 13:45 7.35008 125.38845 15060 ft 328 kts 324°
2026-05-07 13:46 7.36282 125.38007 15512 ft 334 kts 325°
2026-05-07 13:46 7.38223 125.36682 16138 ft 343 kts 324°
2026-05-07 13:46 7.40906 125.34875 17029 ft 352 kts 325°
2026-05-07 13:46 7.42239 125.33978 17481 ft 355 kts 324°
2026-05-07 13:47 7.44317 125.32578 18186 ft 359 kts 325°
2026-05-07 13:47 7.47096 125.30717 19130 ft 368 kts 325°
2026-05-07 13:47 7.48513 125.29768 19613 ft 370 kts 325°
2026-05-07 13:47 7.51392 125.27844 20635 ft 381 kts 325°
2026-05-07 13:48 7.52855 125.26865 21264 ft 384 kts 325°
2026-05-07 13:48 7.55089 125.25369 22146 ft 389 kts 325°
2026-05-07 13:48 7.57327 125.23871 22993 ft 394 kts 326°
2026-05-07 13:48 7.59621 125.22335 23824 ft 399 kts 326°
2026-05-07 13:49 7.61933 125.20787 24629 ft 404 kts 326°
2026-05-07 13:49 7.65076 125.18682 25684 ft 410 kts 326°
2026-05-07 13:49 7.66648 125.17629 26206 ft 412 kts 326°
2026-05-07 13:49 7.69803 125.15517 27234 ft 416 kts 326°
2026-05-07 13:50 7.71421 125.14432 27725 ft 418 kts 326°
2026-05-07 13:50 7.74658 125.12264 28649 ft 423 kts 326°
2026-05-07 13:50 7.77120 125.10615 29317 ft 426 kts 327°
2026-05-07 13:50 7.78749 125.09523 29743 ft 428 kts 327°
2026-05-07 13:51 7.81214 125.07871 30367 ft 432 kts 327°
2026-05-07 13:51 7.83717 125.06194 30979 ft 435 kts 327°
2026-05-07 13:51 7.86228 125.04511 31570 ft 439 kts 327°
2026-05-07 13:51 7.88769 125.02807 32148 ft 442 kts 327°
2026-05-07 13:52 7.91329 125.01090 32711 ft 445 kts 327°
2026-05-07 13:52 7.94763 124.98788 33437 ft 449 kts 327°
2026-05-07 13:52 7.96496 124.97598 33778 ft 451 kts 324°
2026-05-07 13:52 7.98937 124.95637 34249 ft 456 kts 321°
2026-05-07 13:53 8.01432 124.93617 34708 ft 460 kts 322°
2026-05-07 13:53 8.03938 124.91598 35126 ft 465 kts 321°
2026-05-07 13:53 8.07253 124.88899 35664 ft 472 kts 322°
2026-05-07 13:53 8.08841 124.87613 35937 ft 474 kts 322°
2026-05-07 13:54 8.11441 124.85493 36418 ft 478 kts 322°
2026-05-07 13:54 8.14003 124.83410 36885 ft 480 kts 322°
2026-05-07 13:54 8.16595 124.81299 37341 ft 483 kts 322°
2026-05-07 13:54 8.19189 124.79185 37688 ft 482 kts 322°
2026-05-07 13:55 8.21811 124.77048 37835 ft 478 kts 322°
2026-05-07 13:55 8.26922 124.72882 37874 ft 474 kts 322°
2026-05-07 13:56 8.32033 124.68714 37876 ft 473 kts 322°
2026-05-07 13:56 8.37141 124.64545 37882 ft 473 kts 322°
2026-05-07 13:57 8.42213 124.60375 37882 ft 475 kts 320°
2026-05-07 13:57 8.47255 124.55993 37910 ft 480 kts 320°
2026-05-07 13:58 8.52296 124.51618 37896 ft 481 kts 320°
2026-05-07 13:58 8.57353 124.47231 37888 ft 481 kts 320°
2026-05-07 13:59 8.62425 124.42828 37886 ft 481 kts 320°
2026-05-07 13:59 8.67492 124.38428 37885 ft 481 kts 320°
2026-05-07 14:00 8.72514 124.34064 37884 ft 481 kts 320°
2026-05-07 14:00 8.78428 124.28925 37884 ft 480 kts 320°
2026-05-07 14:01 8.83485 124.24527 37884 ft 480 kts 320°
2026-05-07 14:01 8.87670 124.20888 37883 ft 479 kts 320°
2026-05-07 14:02 8.92707 124.16504 37883 ft 479 kts 320°
2026-05-07 14:02 8.97736 124.12127 37885 ft 479 kts 320°
2026-05-07 14:03 9.02770 124.07745 37885 ft 477 kts 320°
2026-05-07 14:03 9.07760 124.03400 37880 ft 474 kts 320°
2026-05-07 14:04 9.13489 123.98408 37881 ft 472 kts 319°
2026-05-07 14:04 9.17631 123.94798 37882 ft 472 kts 320°
2026-05-07 14:05 9.23427 123.89746 37891 ft 474 kts 320°
2026-05-07 14:05 9.27572 123.86131 37888 ft 474 kts 320°
2026-05-07 14:06 9.32578 123.81764 37886 ft 474 kts 320°
2026-05-07 14:06 9.37534 123.77436 37884 ft 474 kts 320°
2026-05-07 14:07 9.42518 123.73085 37886 ft 474 kts 319°
2026-05-07 14:07 9.47506 123.68727 37886 ft 474 kts 320°
2026-05-07 14:08 9.52464 123.64395 37887 ft 475 kts 319°
2026-05-07 14:08 9.58285 123.59307 37887 ft 475 kts 319°
2026-05-07 14:09 9.62452 123.55663 37886 ft 476 kts 320°
2026-05-07 14:09 9.67398 123.51337 37884 ft 475 kts 320°
2026-05-07 14:10 9.72372 123.46983 37879 ft 474 kts 320°
2026-05-07 14:10 9.78175 123.41903 37884 ft 474 kts 320°
2026-05-07 14:11 9.82329 123.38264 37888 ft 475 kts 319°
2026-05-07 14:11 9.87155 123.34036 37887 ft 475 kts 319°
2026-05-07 14:12 9.90353 123.31234 37885 ft 475 kts 319°
2026-05-07 14:12 9.94664 123.27454 37884 ft 475 kts 319°
2026-05-07 14:13 9.99619 123.23108 37884 ft 475 kts 319°
2026-05-07 14:13 10.04523 123.18806 37889 ft 475 kts 319°
2026-05-07 14:14 10.09295 123.14618 37890 ft 474 kts 319°
2026-05-07 14:14 10.14255 123.10265 37892 ft 475 kts 320°
2026-05-07 14:15 10.19228 123.05903 37891 ft 477 kts 319°
2026-05-07 14:15 10.24239 123.01500 37897 ft 478 kts 320°
2026-05-07 14:16 10.30081 122.96359 37902 ft 479 kts 320°
2026-05-07 14:16 10.34273 122.92668 37903 ft 478 kts 320°
2026-05-07 14:17 10.39252 122.88286 37906 ft 474 kts 321°
2026-05-07 14:17 10.44222 122.83910 37908 ft 474 kts 321°
2026-05-07 14:18 10.49170 122.79552 37908 ft 474 kts 321°
2026-05-07 14:18 10.54135 122.75177 37908 ft 474 kts 321°
2026-05-07 14:19 10.59056 122.70837 37909 ft 473 kts 321°
2026-05-07 14:19 10.64034 122.66446 37910 ft 472 kts 321°
2026-05-07 14:20 10.68950 122.62108 37911 ft 472 kts 321°
2026-05-07 14:20 10.74743 122.56993 37912 ft 472 kts 321°
2026-05-07 14:21 10.78504 122.53019 37858 ft 475 kts 306°
2026-05-07 14:21 10.80066 122.50105 37867 ft 477 kts 294°
2026-05-07 14:21 10.80811 122.47775 37882 ft 479 kts 285°
2026-05-07 14:21 10.81242 122.44461 37897 ft 481 kts 272°
2026-05-07 14:22 10.80739 122.39994 37910 ft 482 kts 257°
2026-05-07 14:22 10.79234 122.34531 37969 ft 483 kts 256°
2026-05-07 14:23 10.77420 122.28007 37932 ft 484 kts 255°
2026-05-07 14:23 10.75572 122.21465 37906 ft 483 kts 255°
2026-05-07 14:24 10.73708 122.14925 37893 ft 482 kts 255°
2026-05-07 14:24 10.71838 122.08399 37887 ft 482 kts 255°
2026-05-07 14:25 10.69956 122.01859 37884 ft 482 kts 255°
2026-05-07 14:25 10.68077 121.95339 37884 ft 481 kts 255°
2026-05-07 14:26 10.66208 121.88852 37885 ft 481 kts 255°
2026-05-07 14:26 10.64329 121.82330 37885 ft 481 kts 255°
2026-05-07 14:27 10.62452 121.75824 37884 ft 481 kts 255°
2026-05-07 14:27 10.60591 121.69376 37884 ft 481 kts 255°
2026-05-07 14:28 10.58706 121.62850 37884 ft 480 kts 255°
2026-05-07 14:28 10.56827 121.56351 37884 ft 480 kts 255°
2026-05-07 14:29 10.54946 121.49851 37883 ft 480 kts 255°
2026-05-07 14:29 10.53074 121.43385 37884 ft 480 kts 255°
2026-05-07 14:30 10.51188 121.36880 37887 ft 480 kts 255°
2026-05-07 14:30 10.49305 121.30389 37886 ft 481 kts 254°
2026-05-07 14:31 10.47419 121.23898 37884 ft 481 kts 254°
2026-05-07 14:31 10.45535 121.17414 37884 ft 480 kts 254°
2026-05-07 14:32 10.43645 121.10915 37882 ft 480 kts 254°
2026-05-07 14:32 10.41759 121.04433 37885 ft 480 kts 254°
2026-05-07 14:33 10.39876 120.97972 37886 ft 481 kts 254°
2026-05-07 14:33 10.37971 120.91437 37885 ft 481 kts 254°
2026-05-07 14:34 10.36077 120.84949 37885 ft 481 kts 254°
2026-05-07 14:34 10.34292 120.78835 37885 ft 481 kts 254°
2026-05-07 14:35 10.32391 120.72331 37885 ft 481 kts 254°
2026-05-07 14:35 10.31445 120.69098 37654 ft 480 kts 254°
2026-05-07 14:35 10.30502 120.65876 37063 ft 475 kts 254°
2026-05-07 14:35 10.29573 120.62703 36436 ft 467 kts 254°
2026-05-07 14:36 10.28653 120.59558 35774 ft 460 kts 254°
2026-05-07 14:36 10.27748 120.56468 35064 ft 458 kts 254°
2026-05-07 14:36 10.26837 120.53360 34448 ft 465 kts 254°
2026-05-07 14:36 10.25920 120.50234 33840 ft 463 kts 254°
2026-05-07 14:37 10.25009 120.47133 33200 ft 455 kts 254°
2026-05-07 14:37 10.23219 120.41045 31976 ft 452 kts 254°
2026-05-07 14:37 10.22316 120.38017 31381 ft 444 kts 254°
2026-05-07 14:38 10.21438 120.35061 30775 ft 437 kts 254°
2026-05-07 14:38 10.20565 120.32124 30187 ft 438 kts 254°
2026-05-07 14:38 10.19678 120.29147 29618 ft 433 kts 254°
2026-05-07 14:38 10.18825 120.26283 29036 ft 425 kts 255°
2026-05-07 14:39 10.17967 120.23399 28455 ft 424 kts 255°
2026-05-07 14:39 10.17121 120.20559 27900 ft 418 kts 255°
2026-05-07 14:39 10.16295 120.17790 27336 ft 414 kts 255°
2026-05-07 14:39 10.15457 120.14977 26796 ft 413 kts 255°
2026-05-07 14:40 10.14643 120.12250 26251 ft 405 kts 255°
2026-05-07 14:40 10.13829 120.09520 25698 ft 405 kts 255°
2026-05-07 14:40 10.13022 120.06814 25180 ft 400 kts 255°
2026-05-07 14:40 10.12221 120.04130 24635 ft 394 kts 255°
2026-05-07 14:41 10.11435 120.01495 24118 ft 393 kts 255°
2026-05-07 14:41 10.10649 119.98865 23593 ft 386 kts 255°
2026-05-07 14:41 10.09864 119.96236 23076 ft 387 kts 255°
2026-05-07 14:41 10.09100 119.93681 22572 ft 379 kts 255°
2026-05-07 14:42 10.08340 119.91136 22064 ft 380 kts 255°
2026-05-07 14:42 10.07578 119.88588 21566 ft 373 kts 255°
2026-05-07 14:42 10.06834 119.86103 21065 ft 371 kts 255°
2026-05-07 14:42 10.06085 119.83598 20577 ft 366 kts 255°
2026-05-07 14:43 10.05349 119.81142 20084 ft 364 kts 255°
2026-05-07 14:43 10.04616 119.78691 19606 ft 360 kts 255°
2026-05-07 14:43 10.03893 119.76275 19123 ft 358 kts 255°
2026-05-07 14:43 10.03175 119.73879 18660 ft 354 kts 255°
2026-05-07 14:44 10.02462 119.71499 18183 ft 351 kts 255°
2026-05-07 14:44 10.01757 119.69146 17728 ft 349 kts 255°
2026-05-07 14:44 10.01056 119.66810 17262 ft 345 kts 255°
2026-05-07 14:44 10.00372 119.64526 16817 ft 344 kts 255°
2026-05-07 14:45 9.99454 119.61465 16213 ft 338 kts 255°
2026-05-07 14:45 9.98999 119.59950 15915 ft 338 kts 255°
2026-05-07 14:45 9.98317 119.57678 15476 ft 335 kts 254°
2026-05-07 14:45 9.97645 119.55437 15032 ft 333 kts 254°
2026-05-07 14:46 9.96970 119.53188 14596 ft 331 kts 254°
2026-05-07 14:46 9.96318 119.51019 14169 ft 329 kts 254°
2026-05-07 14:46 9.95437 119.48085 13593 ft 323 kts 254°
2026-05-07 14:46 9.94999 119.46630 13293 ft 318 kts 254°
2026-05-07 14:47 9.94371 119.44537 12851 ft 313 kts 254°
2026-05-07 14:47 9.93730 119.42401 12436 ft 313 kts 253°
2026-05-07 14:47 9.92916 119.40404 11981 ft 311 kts 241°
2026-05-07 14:47 9.91796 119.38548 11610 ft 308 kts 240°
2026-05-07 14:48 9.90369 119.36089 11061 ft 297 kts 240°
2026-05-07 14:48 9.89673 119.34923 10807 ft 291 kts 240°
2026-05-07 14:48 9.88659 119.33204 10552 ft 278 kts 240°
2026-05-07 14:48 9.87682 119.31555 10239 ft 269 kts 240°
2026-05-07 14:49 9.86713 119.29942 9930 ft 271 kts 240°
2026-05-07 14:49 9.85808 119.28416 9649 ft 273 kts 240°
2026-05-07 14:49 9.84842 119.26791 9297 ft 267 kts 240°
2026-05-07 14:49 9.83870 119.25175 8953 ft 267 kts 240°
2026-05-07 14:50 9.82919 119.23581 8606 ft 269 kts 240°
2026-05-07 14:50 9.81958 119.21971 8263 ft 265 kts 240°
2026-05-07 14:50 9.80997 119.20361 7925 ft 264 kts 240°
2026-05-07 14:50 9.80036 119.18754 7584 ft 266 kts 240°
2026-05-07 14:51 9.79092 119.17173 7243 ft 264 kts 240°
2026-05-07 14:51 9.78145 119.15592 6909 ft 262 kts 240°
2026-05-07 14:51 9.76895 119.13507 6467 ft 261 kts 240°
2026-05-07 14:51 9.76253 119.12437 6243 ft 259 kts 240°
2026-05-07 14:52 9.75324 119.10889 5922 ft 259 kts 240°
2026-05-07 14:52 9.74406 119.09361 5665 ft 248 kts 240°
2026-05-07 14:52 9.73539 119.07893 5504 ft 233 kts 245°
2026-05-07 14:52 9.73135 119.06377 5345 ft 219 kts 269°
2026-05-07 14:53 9.73152 119.04839 5224 ft 220 kts 272°
2026-05-07 14:53 9.73159 119.03270 5076 ft 225 kts 271°
2026-05-07 14:53 9.73189 119.01675 4975 ft 223 kts 273°
2026-05-07 14:53 9.73243 118.99660 4785 ft 207 kts 273°
2026-05-07 14:54 9.73274 118.98710 4676 ft 196 kts 273°
2026-05-07 14:54 9.73321 118.97364 4406 ft 186 kts 274°
2026-05-07 14:54 9.73372 118.96066 4130 ft 188 kts 274°
2026-05-07 14:54 9.73425 118.94738 3962 ft 188 kts 274°
2026-05-07 14:55 9.73480 118.93407 3819 ft 191 kts 274°
2026-05-07 14:55 9.73538 118.92060 3609 ft 191 kts 274°
2026-05-07 14:55 9.73594 118.90724 3410 ft 187 kts 274°
2026-05-07 14:55 9.73644 118.89429 3149 ft 177 kts 274°
2026-05-07 14:56 9.73692 118.88235 2840 ft 167 kts 274°
2026-05-07 14:56 9.73738 118.87085 2513 ft 158 kts 274°
2026-05-07 14:56 9.73783 118.86001 2213 ft 151 kts 274°
2026-05-07 14:56 9.73827 118.84952 1939 ft 150 kts 274°
2026-05-07 14:57 9.73872 118.83895 1677 ft 147 kts 274°
2026-05-07 14:57 9.73895 118.82856 1361 ft 151 kts 272°
2026-05-07 14:57 9.73948 118.81803 1045 ft 148 kts 274°
2026-05-07 14:57 9.73996 118.80776 775 ft 145 kts 272°
2026-05-07 14:58 9.74027 118.79767 587 ft 141 kts 273°
2026-05-07 14:58 9.74060 118.78945 450 ft 145 kts 273°
2026-05-07 14:58 9.74108 118.77921 268 ft 144 kts 275°
2026-05-07 14:58 9.74156 118.76928 121 ft 147 kts 274°
2026-05-07 14:59 9.74185 118.76224 105 ft 143 kts 273°
2026-05-07 14:59 9.74233 118.75347 80 ft 96 kts 272°
2026-05-07 14:59 9.74241 118.75101 80 ft 3 kts 271°
2026-05-07 14:59 9.74242 118.75080 80 ft 4 kts 271°
2026-05-07 15:00 9.74243 118.75029 80 ft 11 kts 272°
2026-05-07 15:00 9.74246 118.74970 80 ft 15 kts 274°